Date,TemperatureHighF,TemperatureAvgF,TemperatureLowF,DewpointHighF,DewpointAvgF,DewpointLowF,HumidityHigh,HumidityAvg,HumidityLow,PressureMaxIn,PressureMinIn,WindSpeedMaxMPH,WindSpeedAvgMPH,GustSpeedMaxMPH,PrecipitationSumIn
2013-8-1,64.2,60.7,58.0,62.0,59.6,57.0,98,96,91,30.22,30.03,5,1,12,0.15
2013-8-2,74.3,63.4,55.3,63.0,58.4,55.0,99,86,52,30.09,30.01,8,1,12,0.11
2013-8-3,74.7,62.0,53.2,61.0,55.2,48.0,99,81,48,30.09,30.02,8,2,13,0.01
2013-8-4,69.3,58.3,51.0,58.0,52.2,49.0,97,81,57,30.19,30.06,7,2,14,0.00
2013-8-5,70.3,58.2,47.5,50.0,48.1,45.0,96,72,43,30.27,30.18,6,1,15,0.00
2013-8-6,72.6,59.8,46.8,57.0,51.9,46.0,97,77,51,30.32,30.27,6,1,9,0.00
2013-8-7,65.3,61.3,56.5,63.0,59.2,54.0,99,93,87,30.33,30.23,5,1,11,0.04
2013-8-8,77.6,67.9,61.0,70.0,65.9,61.0,100,93,77,30.23,30.15,9,1,13,0.11
2013-8-9,74.5,69.0,64.5,72.0,68.3,64.0,100,97,89,30.16,29.97,5,1,10,1.61
2013-8-10,73.7,62.3,50.4,63.0,57.2,49.0,100,85,55,30.25,30.05,9,2,16,0.01
2013-8-11,72.8,59.1,46.7,58.0,52.7,46.0,99,82,55,30.33,30.23,7,1,11,0.00
2013-8-12,75.3,63.6,52.6,60.0,56.4,52.0,99,79,54,30.26,30.12,5,1,8,0.00
2013-8-13,73.7,63.8,57.3,66.0,61.3,56.0,99,92,72,30.11,29.86,6,1,11,0.56
2013-8-14,61.8,53.2,45.7,55.0,49.6,45.0,97,88,71,30.24,29.95,9,3,11,0.00
2013-8-15,67.3,54.9,45.7,54.0,49.2,45.0,99,83,55,30.36,30.25,7,1,11,0.01
2013-8-16,72.4,59.4,49.5,57.0,52.1,48.0,97,79,49,30.42,30.34,8,1,9,0.00
2013-8-17,77.5,61.9,49.9,60.0,54.0,49.0,99,78,44,30.50,30.42,4,1,8,0.00
2013-8-18,69.9,61.5,54.5,62.0,57.8,53.0,98,88,71,30.47,30.32,3,0,4,0.00
2013-8-19,73.2,62.5,55.1,63.0,58.8,55.0,100,88,64,30.32,30.22,6,1,9,0.00
2013-8-20,78.0,65.2,54.8,65.0,59.3,55.0,100,83,52,30.34,30.25,5,1,9,0.01
2013-8-21,80.7,67.0,54.7,67.0,59.6,55.0,100,80,47,30.38,30.24,6,1,10,0.01
2013-8-22,81.4,69.6,59.8,67.0,62.4,58.0,99,80,52,30.25,30.03,7,1,9,0.08
2013-8-23,74.3,63.5,54.6,64.0,56.5,50.0,99,80,50,30.35,30.08,5,1,10,0.00
2013-8-24,75.5,60.5,49.1,56.0,51.0,47.0,96,74,44,30.56,30.35,4,1,8,0.00
2013-8-25,76.1,62.7,50.1,60.0,53.7,50.0,100,76,46,30.59,30.38,4,1,11,0.00
2013-8-26,72.5,64.1,58.7,67.0,61.7,55.0,99,92,74,30.41,30.07,7,1,10,1.10
2013-8-27,77.8,66.6,61.7,68.0,64.4,62.0,100,93,67,30.12,30.02,4,1,8,0.04
2013-8-28,81.1,65.9,59.7,70.0,63.9,60.0,100,94,63,30.11,30.02,3,0,8,0.25
2013-8-29,77.5,66.2,59.3,69.0,63.8,59.0,100,93,71,30.21,30.10,3,1,7,0.00
2013-8-30,80.0,68.3,60.3,69.0,63.5,60.0,100,86,57,30.20,30.01,5,1,8,0.00
2013-8-31,80.8,69.9,62.2,71.0,66.7,62.0,100,90,68,30.01,29.92,6,1,18,0.02